Theta_e
294 295 295 295 294 294 293 293 293 294 294 295 295 296 297 298 300 301 302 304 305 309 315 319 319 320 319 319 319 318 316 316 311 314 317 319 318 318 317 315 315 317 317
292 293 293 291 290 290 289 289 290 290 291 292 292 293 293 294 295 296 296 298 298 300 303 305 307 312 316 318 318 317 317 317 314 311 315 315 316 317 318 318 316 312 314
289 289 287 286 286 286 286 287 287 287 288 288 289 289 290 291 291 293 293 292 293 295 296 297 298 300 301 303 305 310 315 316 316 314 313 316 316 316 315 316 315 315 311
286 284 283 283 283 284 284 284 284 285 285 285 286 287 288 288 290 288 288 288 289 291 293 294 295 296 296 296 296 297 299 300 302 306 310 312 312 312 308 310 307 300 308
282 282 281 282 282 282 282 282 283 283 283 284 284 284 285 286 286 285 285 286 287 288 290 291 292 290 288 291 293 294 295 295 296 298 298 300 303 305 297 303 302 307 308
281 280 281 281 281 280 280 281 281 281 281 282 282 282 283 284 285 285 284 284 285 285 286 288 290 289 291 291 292 293 293 292 292 292 293 294 296 300 303 305 305 303 302
280 279 279 279 279 279 280 280 279 279 280 280 281 281 281 282 284 284 283 282 284 285 286 286 287 288 288 290 291 291 291 291 293 293 291 292 294 297 299 298 301 301 302
278 278 278 278 277 278 278 278 278 278 278 278 279 279 279 280 282 282 282 282 282 283 284 285 285 285 286 286 286 286 288 289 291 291 292 293 295 296 296 295 294 295 298
277 276 276 276 275 276 276 276 276 276 277 277 277 277 278 278 280 281 281 280 280 281 282 283 283 283 284 285 283 282 282 284 289 290 291 291 292 292 293 292 290 290 290
274 274 274 274 274 274 274 274 275 275 275 276 276 277 277 277 279 280 280 279 278 278 280 281 281 281 283 283 281 280 279 281 282 283 284 285 287 289 291 291 290 287 290
273 272 272 272 272 273 273 273 273 273 274 274 274 275 276 277 277 279 279 278 277 277 278 278 279 280 281 282 282 280 280 282 282 282 282 282 284 285 288 290 291 290 290
270 270 270 270 271 272 271 272 272 272 272 273 273 273 274 275 276 277 278 278 278 276 276 276 277 279 280 280 280 281 282 282 281 280 280 280 281 283 286 288 290 291 292
267 267 268 269 270 270 270 270 270 271 271 270 270 270 271 273 274 275 275 276 276 275 275 276 277 278 278 278 279 280 279 279 278 278 278 279 281 283 285 286 287 289 289
266 266 267 267 267 268 268 269 268 268 268 268 268 268 269 270 271 272 273 273 274 274 274 274 275 276 276 275 275 276 277 278 278 279 279 281 283 283 283 285 285 286 286
265 265 266 266 266 266 267 267 267 268 268 267 267 268 267 266 269 272 272 271 271 273 273 272 270 270 269 270 271 271 272 273 274 276 275 275 277 282 283 285 285 285 284
263 264 264 264 264 265 265 265 268 269 269 270 270 269 269 270 271 272 272 273 273 274 270 266 265 267 266 267 267 267 268 269 270 270 271 272 272 275 276 283 285 285 284
260 262 262 262 263 263 263 263 262 264 267 267 268 268 269 269 270 270 271 272 273 270 264 264 264 264 264 265 265 265 265 267 268 268 268 269 270 271 273 274 279 284 284
259 259 261 262 262 262 262 261 261 261 260 261 264 266 267 267 268 269 270 269 262 263 262 262 262 263 263 263 264 264 264 265 265 266 266 266 267 269 270 272 274 280 284
259 260 260 260 261 260 260 260 260 260 260 259 260 262 264 265 265 267 267 261 260 260 261 261 262 262 262 263 263 263 263 263 264 264 265 266 267 267 268 269 271 273 281
259 258 258 258 259 259 259 259 259 259 259 258 258 258 259 259 260 259 259 259 259 259 260 260 261 261 261 262 262 262 262 263 263 264 265 266 266 267 267 268 270 271 272
258 258 258 257 258 258 258 257 258 257 257 257 258 259 264 261 258 257 257 258 258 258 258 259 259 260 261 261 261 262 262 262 263 264 265 265 267 266 268 268 269 271 272
257 257 257 257 257 257 257 257 256 256 257 256 257 258 262 257 257 256 257 257 257 258 258 258 259 259 260 260 261 261 261 261 262 264 264 266 267 268 269 269 269 270 271
257 257 257 257 257 256 256 256 256 256 256 256 256 256 256 256 256 256 256 256 256 256 257 257 258 258 260 261 261 261 261 262 263 265 266 268 269 269 270 270 271 271 271
256 256 256 256 256 256 256 255 255 255 255 255 255 255 255 255 255 255 255 255 256 256 256 256 257 257 258 259 260 261 262 263 265 268 269 270 271 272 271 271 272 272 273
255 256 256 256 255 255 255 255 255 255 255 255 255 255 255 255 255 255 255 255 255 254 255 255 256 256 257 258 258 259 262 265 266 269 270 273 271 269 269 270 271 273 276
256 256 256 256 255 255 255 255 255 255 255 255 255 255 255 255 254 254 254 254 254 254 254 254 255 255 256 257 258 262 263 266 269 271 273 272 270 269 269 269 272 274 279
Wind_Speed
9 9 10 10 11 11 10 10 11 10 11 11 11 11 11 11 10 9 10 9 9 9 8 8 10 10 8 8 7 7 8 9 14 12 11 11 13 12 10 9 10 10 10
8 9 10 10 10 10 10 10 11 11 11 11 11 11 11 11 11 10 11 10 11 11 11 11 11 8 11 10 8 11 10 10 10 19 13 11 14 11 12 14 10 9 11
8 9 10 10 10 11 10 10 10 10 11 12 12 11 12 12 11 10 12 13 13 12 12 13 13 13 11 10 11 11 9 10 11 12 15 11 12 9 10 12 12 13 9
8 9 9 9 9 10 10 10 10 9 10 11 11 11 11 12 12 13 14 13 13 13 12 12 12 12 12 13 11 12 12 12 11 11 12 12 11 10 6 10 10 5 12
7 8 8 8 8 9 10 9 9 9 10 10 10 10 11 10 9 14 14 14 14 14 12 12 11 11 12 13 10 11 12 10 10 11 13 13 15 12 4 5 8 10 11
8 8 8 7 8 9 7 9 9 10 10 9 10 11 12 8 15 19 17 13 14 13 12 12 12 12 11 15 16 16 13 13 13 12 13 15 19 13 10 11 11 10 15
7 7 7 7 8 9 8 8 9 9 9 10 9 9 9 10 17 20 22 12 12 12 13 12 11 9 12 13 16 19 16 16 18 15 18 16 20 13 14 15 15 11 16
7 6 6 7 8 8 8 9 10 9 10 9 9 11 11 10 18 20 21 13 12 12 12 14 14 14 14 17 17 17 14 14 13 13 16 18 18 16 15 16 17 16 17
7 7 6 9 9 10 10 10 10 10 10 10 9 11 11 10 18 19 18 13 13 13 12 13 13 15 20 25 18 20 18 15 14 22 26 31 33 33 25 15 13 12 18
7 4 7 8 8 8 8 8 8 8 9 8 11 9 11 11 15 18 17 10 13 12 12 13 17 16 25 27 19 19 22 18 18 20 19 24 26 24 26 20 15 15 15
1 4 9 7 7 7 8 7 8 9 9 9 10 9 10 10 11 19 21 12 11 12 12 11 11 25 30 30 31 20 23 27 28 22 20 18 17 17 14 15 16 14 14
6 6 7 6 6 6 8 8 8 8 8 8 9 8 8 10 15 17 21 21 22 14 15 13 15 30 36 36 30 32 36 33 18 17 17 18 17 15 13 14 16 16 15
4 7 5 5 6 7 7 8 7 7 7 8 8 9 9 9 9 19 20 24 24 18 14 24 36 35 35 27 31 34 30 15 15 17 18 18 16 15 17 16 17 18 18
6 5 5 6 7 7 6 6 6 6 7 9 9 9 9 9 9 10 11 12 18 16 21 17 25 29 29 27 19 17 13 13 14 15 17 18 17 16 16 13 16 14 15
4 4 5 6 7 6 6 6 6 7 8 9 9 10 11 11 11 23 22 15 14 19 24 13 13 13 13 13 13 14 13 13 14 14 15 18 18 18 17 14 15 14 15
3 4 4 5 5 5 6 6 9 11 14 16 18 15 10 21 27 29 29 30 30 30 13 12 12 12 13 14 13 14 13 16 14 15 15 16 17 17 18 18 15 15 16
4 4 4 4 4 5 5 7 8 9 14 15 18 20 22 23 26 28 29 30 27 23 9 10 12 12 13 14 14 14 15 14 16 14 15 16 16 18 19 18 20 18 17
2 2 3 3 4 5 6 7 7 8 9 9 14 19 20 22 25 27 27 24 12 9 8 10 11 12 13 13 14 14 15 15 14 14 15 15 16 16 18 17 18 23 18
2 2 3 4 4 5 6 7 7 7 8 8 9 11 11 20 23 23 24 9 10 10 10 10 11 12 13 13 14 14 15 15 16 16 15 15 15 16 17 18 18 26 32
0 2 3 4 5 5 6 7 7 7 8 8 8 9 10 12 10 10 9 9 9 10 10 11 11 12 13 14 14 14 15 15 15 15 15 16 16 15 17 18 18 19 20
1 2 3 4 4 5 6 6 7 7 7 8 8 10 21 13 10 9 10 10 10 10 11 12 12 13 13 14 14 14 15 16 16 17 16 17 17 17 17 17 18 19 18
2 4 4 4 5 6 6 6 7 8 8 9 9 10 21 9 9 9 10 11 11 11 10 11 12 12 13 14 14 15 16 18 18 17 18 19 19 18 18 19 18 18 17
4 4 5 5 6 7 7 7 7 8 9 9 10 10 8 9 9 10 11 11 11 11 11 11 12 13 13 14 14 15 16 18 19 20 21 21 20 19 17 18 19 17 17
5 6 6 6 6 6 7 8 8 10 10 10 9 9 10 10 10 12 11 11 11 11 11 12 12 17 17 17 15 16 16 18 18 21 30 25 20 20 20 18 19 22 19
5 6 6 6 6 7 8 8 9 10 9 9 9 10 10 10 11 11 11 11 11 12 13 13 12 17 20 25 26 29 27 31 30 32 23 21 23 24 19 17 19 20 22
6 6 6 6 7 8 8 9 10 9 9 9 10 10 11 11 11 11 11 11 11 12 15 13 15 22 25 21 25 28 31 34 31 37 24 18 17 17 17 20 25 19 21
Wind_Direction
68 67 67 61 53 51 47 37 24 19 12 8 3 355 353 349 348 341 336 324 323 312 292 262 257 254 253 247 243 242 250 246 258 272 264 268 271 262 253 243 247 249 254
64 66 61 55 51 49 43 32 24 17 8 2 357 355 353 349 345 342 334 331 321 314 310 306 303 298 280 264 255 256 252 247 259 274 274 273 259 259 258 258 251 240 244
57 60 52 46 40 37 31 26 25 23 14 1 356 354 352 346 343 342 348 337 328 322 321 322 320 319 317 316 318 305 279 262 254 263 274 271 272 264 260 253 244 249 249
56 55 47 39 41 35 25 25 18 19 24 6 356 352 354 352 342 359 343 335 328 323 323 321 317 314 315 331 322 314 313 310 308 303 290 275 271 271 264 264 263 229 256
62 58 48 38 37 43 35 20 17 15 28 4 353 357 351 359 5 348 343 333 328 321 319 318 316 320 310 300 299 304 307 304 302 296 285 285 277 280 265 253 258 274 257
65 59 47 45 46 44 33 24 18 15 17 1 356 360 351 343 347 346 344 331 325 319 319 321 318 312 309 317 300 295 295 299 294 288 284 276 280 280 282 278 267 265 277
73 61 47 39 41 30 25 22 16 11 3 358 350 349 330 334 351 344 340 327 319 320 317 317 318 316 311 308 310 305 299 292 281 285 282 276 282 288 290 289 282 271 268
57 57 47 35 37 23 18 15 7 4 355 347 344 341 338 334 342 340 339 324 320 320 322 317 321 323 322 321 319 308 306 298 290 285 280 284 281 293 298 300 292 293 291
61 12 27 30 22 15 11 2 357 351 342 338 329 327 333 330 334 336 336 324 316 317 317 315 318 313 313 321 316 313 308 297 295 290 284 283 283 282 279 285 276 269 272
54 319 37 21 14 8 360 352 343 333 325 329 329 329 327 322 327 333 332 318 316 318 315 312 309 308 314 314 310 308 302 306 305 297 289 286 284 281 273 262 270 260 266
271 8 40 9 350 3 356 343 336 332 332 328 325 326 320 327 328 329 328 322 317 315 314 315 312 312 310 308 307 300 294 299 295 291 287 283 280 274 270 258 252 250 257
15 9 33 359 351 5 352 345 342 334 330 327 329 330 332 331 330 325 322 323 321 317 314 310 307 309 312 310 305 297 296 296 291 287 282 280 279 276 268 262 255 247 246
15 20 1 357 9 356 351 344 338 342 338 338 338 329 325 326 321 321 327 322 322 316 308 308 314 311 305 305 301 299 299 285 280 280 280 278 278 279 279 276 266 258 256
21 350 357 6 358 360 346 346 344 342 342 337 326 321 318 320 324 324 320 320 317 319 314 305 303 310 310 302 305 302 296 289 284 281 280 280 280 274 270 272 276 272 266
358 0 13 8 359 347 347 338 333 329 330 322 317 315 318 321 319 322 321 321 320 312 313 311 317 311 310 309 308 308 306 299 295 299 300 297 301 295 273 267 263 263 260
15 16 12 354 345 339 337 325 321 323 326 320 320 319 317 315 319 320 322 321 316 317 325 317 307 308 308 308 307 306 302 301 303 300 301 302 293 295 298 293 261 257 259
25 359 351 336 328 330 334 334 323 325 322 324 325 324 323 319 324 324 320 313 322 333 308 307 303 305 305 304 304 305 303 301 302 298 293 293 299 290 296 290 293 263 255
7 273 285 324 333 335 338 328 322 319 319 320 323 322 321 324 323 319 317 332 320 318 302 303 299 301 302 302 301 302 302 300 299 295 292 292 289 289 288 287 288 288 262
304 346 357 332 333 332 318 313 303 296 299 304 307 305 313 318 317 317 325 316 308 308 305 301 300 299 298 299 298 299 296 295 297 295 291 292 291 288 288 287 284 289 285
13 314 347 315 325 311 305 292 293 299 301 301 301 306 315 311 315 319 311 307 305 301 300 300 300 300 299 299 300 299 299 298 297 295 292 290 290 288 285 285 287 286 292
332 325 284 277 277 281 283 286 292 296 289 291 294 297 302 314 313 307 305 304 300 298 297 298 298 299 299 300 300 299 298 297 295 294 295 293 290 289 284 282 283 282 281
255 251 261 267 276 281 277 286 288 282 288 289 289 288 301 303 296 296 294 293 293 292 290 292 295 295 297 297 300 301 298 295 295 295 293 290 288 286 284 281 277 277 281
246 261 265 264 259 269 271 266 274 278 277 280 285 288 294 289 289 288 287 289 292 291 292 293 293 295 295 297 297 293 293 294 295 294 292 292 289 286 281 282 280 275 273
249 250 255 261 264 269 272 272 268 268 270 271 277 279 281 281 282 282 284 287 289 289 291 292 292 293 298 296 296 296 293 293 292 297 302 297 292 301 291 283 280 280 271
239 247 252 257 262 262 268 267 266 264 268 272 275 276 278 278 278 279 281 283 286 289 289 291 291 293 294 299 297 295 295 298 303 302 303 305 309 305 294 289 283 283 268
251 251 255 258 259 259 259 261 262 267 272 273 273 273 274 275 276 279 281 282 284 286 290 290 287 292 295 297 294 299 303 306 309 312 310 318 314 312 305 301 295 290 277